30.06.2024;16:00;12
30.06.2024;15:00;12
30.06.2024;14:00;12
30.06.2024;13:00;13
30.06.2024;12:00;14
30.06.2024;11:00;17
30.06.2024;10:00;19
30.06.2024;09:00;22
30.06.2024;08:00;24
30.06.2024;07:00;26
30.06.2024;06:00;26
30.06.2024;05:00;33
30.06.2024;04:00;43
30.06.2024;03:00;69
30.06.2024;02:00;72
30.06.2024;01:00;62
29.06.2024;24:00;58
29.06.2024;23:00;54
29.06.2024;22:00;78
29.06.2024;21:00;85
29.06.2024;20:00;52
29.06.2024;19:00;35
29.06.2024;18:00;34
29.06.2024;17:00;35
29.06.2024;16:00;46
29.06.2024;15:00;47
29.06.2024;14:00;52
29.06.2024;13:00;49
29.06.2024;12:00;39
29.06.2024;11:00;28
29.06.2024;10:00;19
29.06.2024;09:00;18
29.06.2024;08:00;18
29.06.2024;07:00;18
29.06.2024;06:00;17
29.06.2024;05:00;16
29.06.2024;04:00;15
29.06.2024;03:00;20
29.06.2024;02:00;22
29.06.2024;01:00;18
28.06.2024;24:00;14
28.06.2024;23:00;23
28.06.2024;22:00;28
28.06.2024;21:00;28
28.06.2024;20:00;27
28.06.2024;19:00;29
28.06.2024;18:00;28
28.06.2024;17:00;27
28.06.2024;16:00;28
28.06.2024;15:00;26
28.06.2024;14:00;25
28.06.2024;13:00;27
28.06.2024;12:00;23
28.06.2024;11:00;15
28.06.2024;10:00;9
28.06.2024;09:00;5
28.06.2024;08:00;6
28.06.2024;07:00;10
28.06.2024;06:00;10
28.06.2024;05:00;10
28.06.2024;04:00;14
28.06.2024;03:00;15
28.06.2024;02:00;11
28.06.2024;01:00;9
27.06.2024;24:00;15
27.06.2024;23:00;13
27.06.2024;22:00;10
27.06.2024;21:00;11
27.06.2024;20:00;13
27.06.2024;19:00;11
27.06.2024;18:00;11
27.06.2024;17:00;10
27.06.2024;16:00;16
27.06.2024;15:00;14
27.06.2024;14:00;18
27.06.2024;13:00;14
27.06.2024;12:00;12
27.06.2024;11:00;10
27.06.2024;10:00;12
27.06.2024;09:00;15
27.06.2024;08:00;16
27.06.2024;07:00;15
27.06.2024;06:00;17
27.06.2024;05:00;18
27.06.2024;04:00;13
27.06.2024;03:00;6
27.06.2024;02:00;7
27.06.2024;01:00;9
26.06.2024;24:00;13
26.06.2024;23:00;14
26.06.2024;22:00;13
26.06.2024;21:00;12
26.06.2024;20:00;42
26.06.2024;19:00;9
26.06.2024;18:00;12
26.06.2024;17:00;19
26.06.2024;16:00;23
26.06.2024;15:00;16
26.06.2024;14:00;12
26.06.2024;13:00;16
26.06.2024;12:00;16
26.06.2024;11:00;47
26.06.2024;10:00;2
26.06.2024;09:00;4
26.06.2024;08:00;5
26.06.2024;07:00;5
26.06.2024;06:00;6
26.06.2024;05:00;10
26.06.2024;04:00;11
26.06.2024;03:00;9
26.06.2024;02:00;13
26.06.2024;01:00;18
25.06.2024;24:00;16
25.06.2024;23:00;15
25.06.2024;22:00;9
25.06.2024;21:00;10
25.06.2024;20:00;11
25.06.2024;19:00;10
25.06.2024;18:00;13
25.06.2024;17:00;23
25.06.2024;16:00;18
25.06.2024;15:00;25
25.06.2024;14:00;24
25.06.2024;13:00;18
25.06.2024;12:00;16
25.06.2024;11:00;19
25.06.2024;10:00;14
25.06.2024;09:00;11
25.06.2024;08:00;14
25.06.2024;07:00;19
25.06.2024;06:00;23
25.06.2024;05:00;28
25.06.2024;04:00;34
25.06.2024;03:00;37
25.06.2024;02:00;35
25.06.2024;01:00;33
